Marrakech, Morocco

5:44 AM WET on May 28, 2017 (GMT +0000)
Marrakech

Weather History for GMMX - January, 2013

Change the Weather History Date:

Sunday, January 13, 2013

  Actual Average Record
Temperature  
Mean Temperature 50 °F -  
Max Temperature 65 °F 65 °F 78 °F (2007)
Min Temperature 35 °F 43 °F 33 °F (2009)
Degree Days  
Heating Degree Days 15    
Moisture  
Dew Point 38 °F    
Average Humidity 60    
Maximum Humidity 88    
Minimum Humidity 22    
Precipitation  
Precipitation 0.00 in 0.05 in - ()
Sea Level Pressure  
Sea Level Pressure 30.24 in    
Wind  
Wind Speed 3 mph ()    
Max Wind Speed 12 mph    
Max Gust Speed -    
Visibility 6.1 miles    
Events      
Averages and records for this station are not official NWS values.
T = Trace of Precipitation, MM = Missing Value Source: Averaged Metar Reports

Daily Weather History Graph

Daily Weather History Graph

Search for Another Location

Airport or City:

Trip Planner

Search our weather history database for the weather conditions in past years. The results will help you decide how hot, cold, wet, or windy it might be!

Date:

Astronomy

Jan. 13, 2013 Rise Set
Actual Time 7:32 AM WET 5:49 PM WET
Civil Twilight 7:06 AM WET 6:15 PM WET
Nautical Twilight 6:36 AM WET 6:45 PM WET
Astronomical Twilight 6:06 AM WET 7:15 PM WET
Moon 8:31 AM WET (1/13) 8:01 PM WET (1/13)
Length of Visible Light 11h 09m
Length of Day
10h 17m
Waxing Crescent, 4% of the Moon is Illuminated
Jan 13
Waxing Crescent
Jan 18
First Quarter
Jan 27
Full
Feb 3
Last Quarter
Feb 10
New

Hourly Weather History & Observations

Time (WET) Temp. Windchill Dew Point Humidity Pressure Visibility Wind Dir Wind Speed Gust Speed Precip Events Conditions
12:00 AM 48 °F - 33 °F 44% 30.26 in 6 mi ENE 2.3 mph - -   Clear
12:00 AM 48.2 °F - 32.0 °F 54% 30.21 in - ENE 2.3 mph - N/A   Clear
12:30 AM 46.4 °F - 35.6 °F 66% 30.21 in - Variable 1.2 mph - N/A   Clear
1:00 AM 46.4 °F 45.2 °F 33.8 °F 62% 30.21 in - East 3.5 mph - N/A   Clear
1:30 AM 46.4 °F 45.2 °F 32.0 °F 57% 30.21 in - SSE 3.5 mph - N/A   Clear
2:00 AM 42.8 °F 40.1 °F 30.2 °F 61% 30.21 in - ESE 4.6 mph - N/A   Clear
2:30 AM 41.0 °F - 28.4 °F 61% 30.21 in - SE 2.3 mph - N/A   Clear
3:00 AM 41 °F - 29 °F 52% 30.29 in 6 mi Calm Calm - -   Clear
3:00 AM 41.0 °F - 30.2 °F 65% 30.24 in - Calm Calm - N/A   Clear
3:30 AM 41.0 °F - 28.4 °F 61% 30.24 in - South 1.2 mph - N/A   Clear
4:00 AM 41.0 °F 39.0 °F 30.2 °F 65% 30.21 in - SSE 3.5 mph - N/A   Clear
4:30 AM 42.8 °F - 30.2 °F 61% 30.21 in - Calm Calm - N/A   Clear
5:00 AM 41.0 °F - 30.2 °F 65% 30.21 in - ENE 1.2 mph - N/A   Clear
5:30 AM 41.0 °F - 30.2 °F 65% 30.21 in - Calm Calm - N/A   Clear
6:00 AM 39 °F - 31 °F 62% 30.27 in 6 mi Calm Calm - -   Clear
6:00 AM 39.2 °F - 30.2 °F 70% 30.21 in - Calm Calm - N/A   Clear
6:30 AM 39.2 °F - 32.0 °F 75% 30.21 in - Variable 2.3 mph - N/A   Clear
7:00 AM 39.2 °F 37.0 °F 30.2 °F 70% 30.21 in - ENE 3.5 mph - N/A   Clear
7:30 AM 35.6 °F 32.8 °F 30.2 °F 81% 30.21 in - East 3.5 mph - N/A   Clear
8:00 AM 37.4 °F 34.9 °F 32.0 °F 81% 30.24 in - ENE 3.5 mph - N/A   Clear
8:30 AM 41.0 °F 39.0 °F 33.8 °F 76% 30.24 in 5.0 mi ESE 3.5 mph - N/A   Unknown
9:00 AM 47 °F - 34 °F 50% 30.30 in 6 mi Calm Calm - -   Clear
9:00 AM 46.4 °F - 33.8 °F 62% 30.27 in - Calm Calm - N/A   Clear
9:30 AM 50.0 °F - 35.6 °F 58% 30.27 in - Variable 1.2 mph - N/A   Clear
10:00 AM 51.8 °F - 35.6 °F 54% 30.27 in - Calm Calm - N/A   Clear
10:30 AM 55.4 °F - 37.4 °F 51% 30.27 in - Calm Calm - N/A   Clear
11:00 AM 59.0 °F - 37.4 °F 45% 30.27 in - Calm Calm - N/A   Clear
11:30 AM 57.2 °F - 41.0 °F 55% 30.27 in - North 4.6 mph - N/A   Clear
12:00 PM 59 °F - 40 °F 38% 30.27 in 6 mi NNW 4.6 mph - -   Clear
12:00 PM 59.0 °F - 41.0 °F 51% 30.27 in - NNW 4.6 mph - N/A   Clear
12:30 PM 60.8 °F - 41.0 °F 48% 30.27 in - Variable 2.3 mph - N/A   Clear
1:00 PM 60.8 °F - 35.6 °F 39% 30.24 in - Variable 3.5 mph - N/A   Clear
1:30 PM 62.6 °F - 39.2 °F 42% 30.24 in - Variable 3.5 mph - N/A   Clear
2:00 PM 64.4 °F - 37.4 °F 37% 30.24 in - NW 4.6 mph - N/A   Clear
2:30 PM 64.4 °F - 33.8 °F 32% 30.24 in - NNE 9.2 mph - N/A   Clear
3:00 PM 65 °F - 36 °F 22% 30.23 in 6 mi NNE 6.9 mph - -   Scattered Clouds
3:00 PM 64.4 °F - 33.8 °F 32% 30.24 in 6.2 mi North 6.9 mph - N/A   Partly Cloudy
3:30 PM 64.4 °F - 37.4 °F 37% 30.24 in 6.2 mi North 5.8 mph - N/A   Partly Cloudy
4:00 PM 64.4 °F - 35.6 °F 34% 30.24 in 6.2 mi North 5.8 mph - N/A   Partly Cloudy
4:30 PM 64.4 °F - 37.4 °F 37% 30.24 in 6.2 mi NNE 5.8 mph - N/A   Scattered Clouds
5:00 PM 64.4 °F - 39.2 °F 40% 30.24 in 6.2 mi North 3.5 mph - N/A   Scattered Clouds
5:30 PM 62.6 °F - 44.6 °F 52% 30.24 in 6.2 mi North 5.8 mph - N/A   Scattered Clouds
6:00 PM 58 °F - 50 °F 68% 30.25 in 6 mi North 11.5 mph - -   Partly Cloudy
6:00 PM 59.0 °F - 50.0 °F 72% 30.24 in 6.2 mi North 11.5 mph - N/A   Scattered Clouds
6:30 PM 57.2 °F - 50.0 °F 77% 30.24 in 6.2 mi North 6.9 mph - N/A   Scattered Clouds
7:30 PM 55.4 °F - 48.2 °F 77% 30.24 in 6.2 mi NNE 5.8 mph - N/A   Scattered Clouds
8:00 PM 55.4 °F - 48.2 °F 77% 30.24 in 6.2 mi NNE 5.8 mph - N/A   Scattered Clouds
8:30 PM 55.4 °F - 48.2 °F 77% 30.24 in 6.2 mi NNE 10.4 mph - N/A   Scattered Clouds
9:00 PM 54 °F - 49 °F 77% 30.26 in 6 mi ENE 8.1 mph - -   Partly Cloudy
9:00 PM 53.6 °F - 50.0 °F 88% 30.24 in 6.2 mi ENE 6.9 mph - N/A   Scattered Clouds
9:30 PM 55.4 °F - 48.2 °F 77% 30.24 in 6.2 mi NE 8.1 mph - N/A   Mostly Cloudy
10:00 PM 55.4 °F - 48.2 °F 77% 30.24 in 6.2 mi NE 9.2 mph - N/A   Scattered Clouds
10:30 PM 53.6 °F - 48.2 °F 82% 30.27 in 6.2 mi ENE 6.9 mph - N/A   Scattered Clouds
11:00 PM 53.6 °F - 46.4 °F 77% 30.27 in 6.2 mi NE 10.4 mph - N/A   Scattered Clouds
11:30 PM 53.6 °F - 46.4 °F 77% 30.27 in 6.2 mi NE 8.1 mph - N/A   Scattered Clouds